Weather in Primorskoye

Russia / Ulyanovsk Oblast     54°03′18″N   49°27′38″E
temp.,
°C
wind,
m/s
gust,
m/s
humid.,
%
clouds,
%
prec.,
mm/h
press.,
hPa
HPBL,
m
19 january, tue
tue1901:00−19nne2398100 0.6 1018171
04:00−18nne3597100 1.4 1017244
07:00−18n2497100 0.5 1016232
10:00−19nnw2396100 0.6 101680
13:00−17wnw349599 0.1 1015243
16:00−19wnw339696 0.1 101549
19:00−21w349877 0.0 101642
22:00−23wnw239877 0.0 101622
20 january, wed
wed2001:00−23wsw239756 0.0 101720
04:00−24sw239767 0.0 101725
07:00−24wsw239641 0.0 101722
10:00−24sw239537 0.0 101826
13:00−21ssw349427 0.0 1018131
16:00−22sw339517 0.0 101839
19:00−22sw339660 0.0 102036
22:00−20sw339580 0.0 102053
21 january, thu
thu2101:00−19sw3394100 0.0 102162
04:00−20sw349688 0.0 102137
07:00−19sw349889 0.0 102264
10:00−18sw349787 0.1 102279
13:00−15sw459597 0.0 1022185
16:00−13sw469498 0.1 1021154
19:00−13ssw6993100 0.0 1020216
22:00−13ssw71390100 0.0 1017323
22 january, fri
fri2201:00−12sw91594100 1.6 1014592
04:00−10wsw61195100 3.8 1012682
07:00−9wsw5995100 1.1 1012475
10:00−8sw4695100 1.7 1012261
13:00−6sw3495100 0.3 1013209
16:00−5s2396100 0.3 101396
19:00−5se229797 0.3 101428
22:00−5se339790 0.5 101564
23 january, sat
sat2301:00−1s129998 0.3 101563
04:00+1wsw2410099 0.8 101691
07:00+1sw3599100 0.1 1017148
10:000ssw4899100 0.2 1017271
13:00+1ssw51098100 0.1 1017340
16:00+1sw61199100 0.2 1017366
19:00+1sw51097100 0.1 1018331
22:00+1sw5996100 0.1 1019255